FW7504 Weather Reports


time (UTC)temp
C
wind
direction
speed
KPH
gust
KPH
rain 1hr
cm
rain 24hr
cm
rain mn
cm
humidity
%
barometer
mb
20260508014052 15 0 0.0 1.6 0.00 0.74 0.51 75 1016.2
20260508013551 15 0 0.0 1.6 0.00 0.74 0.51 75 1015.9
20260508013104 15 0 0.0 0.0 0.00 0.74 0.51 74 1016.1
20260508012551 16 0 0.0 0.0 0.00 0.74 0.51 72 1015.9
20260508012051 16 0 0.0 0.0 0.00 0.74 0.51 70 1015.9
20260508011601 16 0 0.0 0.0 0.00 0.74 0.51 70 1015.7
20260508011051 16 0 0.0 3.2 0.00 0.74 0.51 71 1015.7
20260508010548 16 0 0.0 3.2 0.00 0.74 0.51 69 1015.6
20260508010059 17 0 1.6 3.2 0.00 0.74 0.51 68 1015.5
20260508005552 17 360 0.0 4.8 0.00 0.76 0.51 65 1015.5
20260508005053 17 0 0.0 4.8 0.00 0.76 0.51 63 1015.5
20260508004601 17 0 0.0 6.4 0.00 0.76 0.51 62 1015.3
20260508004052 17 360 0.0 6.4 0.00 0.76 0.51 61 1015.2
20260508003551 17 0 0.0 6.4 0.00 0.76 0.51 60 1015.1
20260508003056 17 360 0.0 6.4 0.00 0.76 0.51 61 1015.0
20260508002551 18 360 0.0 1.6 0.00 0.76 0.51 61 1015.1
20260508002051 18 0 0.0 6.4 0.00 0.76 0.51 61 1015.2
20260508001554 18 0 0.0 6.4 0.00 0.76 0.51 59 1015.0
20260508001051 18 360 0.0 9.7 0.00 0.76 0.51 60 1015.0
20260508000552 18 0 1.6 9.7 0.00 0.76 0.51 59 1014.8
20260508000054 18 360 1.6 8.0 0.00 0.76 0.51 59 1014.8
20260507235553 18 0 3.2 8.0 0.00 1.47 0.51 59 1014.9
20260507235054 18 360 3.2 8.0 0.00 1.47 0.51 59 1014.9
20260507234552 18 360 1.6 8.0 0.00 1.47 0.51 59 1014.7
20260507234052 18 360 0.0 8.0 0.00 1.47 0.51 60 1014.7
20260507233552 18 0 3.2 9.7 0.00 1.47 0.51 60 1014.6
20260507233050 18 360 1.6 9.7 0.00 1.47 0.51 59 1014.6
20260507232551 18 360 1.6 9.7 0.00 1.47 0.51 59 1014.7
20260507232048 18 0 1.6 9.7 0.00 1.47 0.51 57 1014.7
20260507231552 18 360 1.6 16.1 0.00 1.47 0.51 57 1014.8
20260507231048 19 0 4.8 16.1 0.00 1.47 0.51 57 1014.6
20260507230549 19 360 4.8 14.5 0.00 1.47 0.51 58 1014.7
20260507230059 19 360 3.2 12.9 0.00 1.47 0.51 58 1014.6
20260507225548 19 360 1.6 9.7 0.00 1.75 0.51 59 1014.6
20260507225052 19 360 1.6 8.0 0.00 1.75 0.51 60 1014.5
20260507224601 19 0 3.2 8.0 0.00 1.75 0.51 60 1014.5
20260507224052 19 360 3.2 8.0 0.00 1.75 0.51 60 1014.7
20260507223552 20 360 1.6 8.0 0.00 1.75 0.51 60 1014.8
20260507223053 20 0 1.6 12.9 0.00 1.75 0.51 59 1014.6
20260507222551 20 360 3.2 16.1 0.00 1.75 0.51 59 1014.6
20260507222052 20 360 4.8 16.1 0.00 1.75 0.51 58 1014.5
20260507221555 20 360 3.2 14.5 0.00 1.75 0.51 58 1014.5
20260507221052 20 360 4.8 14.5 0.00 1.75 0.51 59 1014.4
20260507220548 20 18 3.2 12.9 0.00 1.75 0.51 59 1014.6
20260507215553 20 0 1.6 17.7 0.00 1.78 0.51 60 1014.6
20260507215049 20 360 3.2 16.1 0.00 1.78 0.51 60 1014.4
20260507214554 20 360 3.2 9.7 0.00 1.78 0.51 61 1014.5
20260507214048 20 360 1.6 9.7 0.00 1.78 0.51 61 1014.4
20260507213548 19 360 3.2 9.7 0.00 1.78 0.51 62 1014.3
20260507213106 19 0 1.6 8.0 0.00 1.78 0.51 62 1014.2
20260507212550 19 360 1.6 9.7 0.00 1.78 0.51 62 1014.2
20260507212052 19 0 3.2 9.7 0.00 1.78 0.51 62 1014.3
20260507211557 19 360 0.0 14.5 0.00 1.78 0.51 64 1014.2
20260507211051 19 360 3.2 14.5 0.00 1.78 0.51 64 1014.3
20260507210549 19 360 3.2 14.5 0.00 1.78 0.51 65 1014.2
20260507210057 19 360 0.0 6.4 0.00 1.78 0.51 66 1014.1
20260507205549 19 360 0.0 9.7 0.00 1.96 0.51 66 1014.2
20260507205054 19 360 0.0 12.9 0.00 1.96 0.51 66 1014.1
20260507204603 19 360 3.2 12.9 0.00 1.96 0.51 66 1014.2
20260507204052 19 360 3.2 12.9 0.00 1.96 0.51 66 1014.1
20260507203551 19 360 1.6 9.7 0.00 1.96 0.51 67 1014.0
20260507203056 19 360 1.6 9.7 0.00 1.96 0.51 67 1013.9
20260507202552 19 360 3.2 9.7 0.00 1.96 0.51 68 1014.2
20260507202048 19 360 3.2 6.4 0.00 1.96 0.51 67 1014.1
20260507201605 19 360 0.0 9.7 0.00 1.96 0.51 68 1014.1
20260507201051 19 0 0.0 9.7 0.00 1.96 0.51 67 1013.9
20260507200548 19 360 1.6 9.7 0.00 1.96 0.51 68 1014.0
20260507200056 19 0 1.6 8.0 0.00 1.96 0.51 68 1014.0
20260507195551 19 0 0.0 9.7 0.00 2.06 0.51 68 1014.0
20260507195051 19 360 1.6 9.7 0.00 2.06 0.51 68 1014.0
20260507194609 19 360 3.2 8.0 0.00 2.06 0.51 68 1014.1
20260507194052 19 360 0.0 9.7 0.00 2.06 0.51 68 1014.2
20260507193551 19 360 1.6 9.7 0.00 2.06 0.51 68 1014.2
20260507193055 19 360 1.6 8.0 0.00 2.06 0.51 68 1014.3
20260507192548 19 0 1.6 12.9 0.00 2.06 0.51 69 1014.3
20260507192048 19 0 0.0 12.9 0.00 2.06 0.51 68 1014.4
20260507191610 19 0 1.6 12.9 0.00 2.06 0.51 68 1014.4
20260507191050 18 360 1.6 9.7 0.00 2.06 0.51 68 1014.4
20260507190548 18 360 1.6 9.7 0.00 2.06 0.51 68 1014.5
20260507190053 18 360 3.2 8.0 0.00 2.06 0.51 69 1014.5
20260507185548 18 360 1.6 8.0 0.00 2.74 0.51 69 1014.6
20260507185052 18 360 0.0 9.7 0.00 2.74 0.51 68 1014.6
20260507184558 18 0 3.2 9.7 0.00 2.74 0.51 68 1014.6
20260507184049 18 360 1.6 12.9 0.00 2.74 0.51 68 1014.7
20260507183550 18 360 4.8 12.9 0.00 2.74 0.51 67 1014.7
20260507183053 18 360 3.2 9.7 0.00 2.74 0.51 68 1014.7
20260507182552 18 360 0.0 8.0 0.00 2.74 0.51 69 1014.7
20260507182052 18 360 4.8 12.9 0.00 2.74 0.51 67 1014.8
20260507181555 18 360 4.8 12.9 0.00 2.74 0.51 68 1014.9
20260507181053 18 0 3.2 9.7 0.00 2.74 0.51 66 1014.9
20260507180549 18 360 4.8 12.9 0.00 2.74 0.51 68 1014.9
20260507180056 18 360 3.2 12.9 0.00 2.74 0.51 68 1014.8
20260507175551 18 360 3.2 9.7 0.00 2.74 0.51 69 1015.0
20260507175048 18 360 4.8 9.7 0.00 2.74 0.51 71 1015.0
20260507174552 17 360 1.6 9.7 0.00 2.74 0.51 70 1015.0
20260507174052 17 360 1.6 14.5 0.00 2.74 0.51 71 1015.1
20260507173551 17 0 3.2 14.5 0.00 2.74 0.51 72 1015.3
20260507173058 17 360 4.8 14.5 0.00 2.74 0.51 71 1015.4
20260507172550 17 360 3.2 14.5 0.00 2.74 0.51 71 1015.4
20260507172052 17 360 3.2 14.5 0.00 2.74 0.51 73 1015.5
20260507171554 17 360 3.2 17.7 0.00 2.74 0.51 72 1015.4
20260507171052 17 360 6.4 17.7 0.00 2.74 0.51 72 1015.5
20260507170552 17 360 4.8 14.5 0.00 2.74 0.51 74 1015.5
20260507170059 17 360 3.2 12.9 0.00 2.74 0.51 75 1015.5
20260507165551 17 0 4.8 14.5 0.00 2.74 0.51 76 1015.5
20260507165051 16 360 3.2 14.5 0.00 2.74 0.51 75 1015.5
20260507164612 16 360 3.2 14.5 0.00 2.74 0.51 79 1015.4
20260507164051 16 360 1.6 14.5 0.00 2.74 0.51 79 1015.5
20260507163552 16 360 3.2 14.5 0.00 2.74 0.51 79 1015.4
20260507163052 15 360 4.8 12.9 0.00 2.74 0.51 80 1015.5
20260507162551 15 360 1.6 9.7 0.00 2.74 0.51 82 1015.4
20260507162049 15 360 3.2 9.7 0.00 2.74 0.51 80 1015.3
20260507161608 15 360 3.2 9.7 0.00 2.74 0.51 81 1015.5
20260507161051 15 360 4.8 9.7 0.00 2.74 0.51 82 1015.5
20260507160552 14 360 1.6 9.7 0.00 2.74 0.51 83 1015.6
20260507160053 14 360 0.0 6.4 0.00 2.74 0.51 84 1015.5
20260507155550 14 0 0.0 9.7 0.00 2.74 0.51 84 1015.5
20260507155052 13 360 1.6 9.7 0.00 2.74 0.51 84 1015.5
20260507154553 13 360 4.8 14.5 0.00 2.74 0.51 84 1015.6
20260507154050 13 360 3.2 14.5 0.00 2.74 0.51 85 1015.6
20260507153553 13 360 4.8 14.5 0.00 2.74 0.51 85 1015.5
20260507153052 13 360 6.4 14.5 0.00 2.74 0.51 85 1015.5
20260507152551 13 360 1.6 12.9 0.00 2.74 0.51 87 1015.5
20260507152051 13 360 3.2 16.1 0.00 2.74 0.51 86 1015.4
20260507151552 13 360 3.2 16.1 0.00 2.74 0.51 86 1015.2
20260507151051 13 360 4.8 14.5 0.00 2.74 0.51 87 1015.2
20260507150551 13 360 4.8 14.5 0.00 2.74 0.51 87 1015.1
20260507150057 13 360 3.2 14.5 0.00 2.74 0.51 87 1015.2
20260507145550 13 360 4.8 17.7 0.00 3.78 0.51 87 1015.3
20260507145054 13 360 3.2 17.7 0.00 3.78 0.51 87 1015.2
20260507144603 13 360 6.4 17.7 0.00 3.78 0.51 88 1015.2
20260507144051 13 360 6.4 12.9 0.00 3.78 0.51 89 1015.1
20260507143549 13 0 3.2 12.9 0.00 3.78 0.51 90 1015.2
20260507143108 13 360 3.2 14.5 0.00 3.78 0.51 91 1015.1
20260507142551 13 0 3.2 14.5 0.00 3.78 0.51 91 1015.0
20260507142050 13 360 3.2 14.5 0.00 3.78 0.51 91 1014.9
20260507141618 13 0 4.8 16.1 0.00 3.78 0.51 92 1015.0
20260507141053 13 0 4.8 16.1 0.00 3.78 0.51 92 1015.0
20260507140548 13 360 3.2 12.9 0.00 3.78 0.51 92 1014.9
20260507140057 13 0 1.6 12.9 0.00 3.78 0.51 92 1014.9
20260507135552 13 360 3.2 12.9 0.00 3.99 0.51 92 1015.0
20260507135052 13 360 3.2 8.0 0.00 3.99 0.51 93 1015.0
20260507134555 13 0 0.0 9.7 0.00 3.99 0.51 93 1014.8
20260507134051 13 360 0.0 9.7 0.00 3.99 0.51 93 1014.7
20260507133551 13 360 1.6 9.7 0.00 3.99 0.51 93 1014.7
20260507133109 13 360 1.6 4.8 0.00 3.99 0.51 93 1014.6
20260507132548 13 360 0.0 9.7 0.00 3.99 0.51 93 1014.8
20260507132049 13 360 1.6 14.5 0.00 3.99 0.51 93 1014.5
20260507131605 13 360 4.8 14.5 0.00 3.99 0.51 93 1014.4
20260507131049 13 360 1.6 12.9 0.00 3.99 0.51 94 1014.2
20260507130552 13 0 3.2 12.9 0.00 3.99 0.51 93 1014.4
20260507130056 13 0 0.0 9.7 0.00 3.99 0.51 93 1014.2
20260507125552 12 360 3.2 14.5 0.00 3.99 0.51 93 1014.0
20260507125049 12 360 6.4 14.5 0.00 3.99 0.51 93 1013.9
20260507124556 12 360 3.2 14.5 0.00 3.99 0.51 93 1013.9
20260507124048 12 360 1.6 14.5 0.00 3.99 0.51 93 1014.0
20260507123548 12 360 1.6 14.5 0.00 3.99 0.51 94 1014.0
20260507123110 12 360 3.2 14.5 0.00 3.99 0.51 94 1013.7
20260507122548 13 360 1.6 12.9 0.00 3.99 0.51 94 1013.7
20260507122049 13 360 3.2 12.9 0.00 3.99 0.51 94 1013.8
20260507121557 13 360 4.8 12.9 0.00 3.99 0.51 94 1013.8
20260507121052 13 360 3.2 12.9 0.00 3.99 0.51 94 1013.8
20260507120548 13 360 3.2 12.9 0.00 3.99 0.51 94 1013.8
20260507120055 13 360 0.0 12.9 0.00 3.99 0.51 94 1013.8
20260507115548 13 360 3.2 12.9 0.00 3.99 0.51 94 1013.4
20260507115053 13 360 1.6 9.7 0.00 3.99 0.51 94 1013.4
20260507114556 13 0 0.0 8.0 0.00 3.99 0.51 94 1013.8
20260507114054 13 0 1.6 8.0 0.00 3.99 0.51 94 1013.9
20260507113550 13 0 0.0 8.0 0.00 3.99 0.51 94 1013.8
20260507113051 13 0 0.0 6.4 0.00 3.99 0.51 94 1013.7
20260507112548 13 0 0.0 6.4 0.00 3.99 0.51 95 1013.3
20260507112050 13 360 0.0 6.4 0.00 3.99 0.51 95 1013.1
20260507111550 13 0 0.0 8.0 0.00 3.99 0.51 95 1013.0
20260507111051 13 360 3.2 9.7 0.00 3.99 0.51 95 1013.0
20260507110551 13 360 1.6 9.7 0.03 3.99 0.51 95 1012.9
20260507110057 13 360 3.2 8.0 0.03 3.99 0.51 95 1013.1
20260507105549 13 360 1.6 8.0 0.03 3.99 0.51 95 1012.9
20260507105051 13 360 1.6 6.4 0.03 3.99 0.51 95 1012.3
20260507104559 13 360 0.0 9.7 0.03 3.99 0.51 94 1013.2
20260507104052 13 360 4.8 12.9 0.03 3.99 0.51 95 1012.8
20260507103553 13 360 1.6 12.9 0.05 3.99 0.51 95 1012.7
20260507103054 14 360 3.2 12.9 0.08 3.99 0.51 95 1012.4
20260507102553 14 360 3.2 6.4 0.10 3.99 0.51 95 1012.5
20260507102056 14 360 1.6 6.4 0.15 3.99 0.51 95 1012.4
20260507101553 14 0 0.0 4.8 0.20 3.99 0.51 95 1012.5
20260507101056 14 0 0.0 4.8 0.25 3.99 0.51 95 1012.7
20260507100552 14 0 1.6 4.8 0.23 3.96 0.48 95 1012.6
20260507100059 14 360 1.6 8.0 0.25 3.96 0.48 95 1012.6
20260507095553 14 0 1.6 8.0 0.25 3.96 0.48 95 1012.6
20260507095053 14 360 0.0 4.8 0.28 3.96 0.48 95 1012.6
20260507094554 14 0 0.0 6.4 0.28 3.96 0.48 95 1012.9
20260507094052 14 0 1.6 6.4 0.36 3.96 0.48 95 1012.8
20260507093553 15 0 1.6 6.4 0.41 3.94 0.46 95 1012.6
20260507093054 15 0 1.6 4.8 0.38 3.91 0.43 95 1013.1
20260507092553 15 0 0.0 6.4 0.36 3.89 0.41 95 1012.9
20260507092053 15 0 0.0 6.4 0.30 3.84 0.36 95 1013.1
20260507091554 15 360 0.0 6.4 0.25 3.78 0.30 95 1013.3
20260507091056 15 0 0.0 12.9 0.20 3.73 0.25 95 1013.4
20260507090553 15 0 1.6 12.9 0.20 3.73 0.25 95 1012.8
20260507085553 15 360 0.0 14.5 0.18 3.71 0.23 95 1011.9
20260507085054 15 360 3.2 14.5 0.15 3.68 0.20 95 1012.2
20260507084555 15 360 0.0 9.7 0.15 3.68 0.20 95 1012.2
20260507084052 15 360 3.2 9.7 0.08 3.61 0.13 94 1012.3
20260507083556 15 360 0.0 9.7 0.00 3.53 0.05 94 1013.5
20260507083055 16 360 3.2 9.7 0.00 3.53 0.05 94 1013.1
20260507082553 16 0 3.2 12.9 0.00 3.53 0.05 94 1012.7
20260507082053 16 360 3.2 12.9 0.00 3.53 0.05 95 1012.6
20260507081556 16 360 0.0 3.2 0.00 3.53 0.05 96 1012.6
20260507081057 16 0 0.0 0.0 0.00 3.53 0.05 96 1012.4
20260507080553 16 0 0.0 0.0 0.00 3.53 0.05 96 1012.4
20260507080107 16 0 0.0 0.0 0.00 3.53 0.05 96 1012.6
20260507075553 16 0 0.0 0.0 0.00 3.53 0.05 96 1012.8
20260507075053 16 0 0.0 0.0 0.00 3.53 0.05 96 1012.7
20260507074551 16 0 0.0 0.0 0.00 3.53 0.05 96 1012.4
20260507074052 16 0 0.0 0.0 0.00 3.53 0.05 96 1012.4
20260507073556 16 0 0.0 0.0 0.00 3.53 0.05 96 1012.4
20260507073054 16 0 0.0 0.0 0.00 3.53 0.05 96 1012.4
20260507072555 16 0 0.0 0.0 0.00 3.53 0.05 96 1012.3
20260507072052 16 0 0.0 0.0 0.00 3.53 0.05 96 1012.2
20260507071553 16 0 0.0 0.0 0.00 3.53 0.05 96 1011.9
20260507071052 16 0 0.0 0.0 0.00 3.53 0.05 96 1011.8
20260507070555 16 0 0.0 0.0 0.00 3.53 0.05 96 1012.3
20260507070105 16 0 0.0 0.0 0.00 3.53 0.05 96 1012.5
20260507065556 16 0 0.0 0.0 0.00 3.53 0.05 96 1012.5
20260507065053 16 0 0.0 0.0 0.00 3.53 0.05 96 1012.8
20260507064625 16 0 0.0 0.0 0.00 3.53 0.05 96 1012.9
20260507064056 16 0 0.0 0.0 0.00 3.53 0.05 96 1012.8
20260507063553 16 0 0.0 0.0 0.00 3.53 0.05 95 1012.8
20260507063053 16 0 0.0 0.0 0.00 3.53 0.05 95 1013.0
20260507062552 16 0 0.0 0.0 0.00 3.53 0.05 95 1013.1
20260507062053 17 0 0.0 0.0 0.00 3.53 0.05 95 1013.1
20260507061557 17 0 0.0 0.0 0.00 3.53 0.05 96 1013.0
20260507061052 17 0 0.0 0.0 0.00 3.53 0.05 96 1013.2
20260507060552 17 0 0.0 1.6 0.00 3.53 0.05 96 1013.2
20260507060112 17 0 0.0 1.6 0.00 3.53 0.05 96 1013.5
20260507055553 17 0 0.0 1.6 0.00 3.53 0.05 96 1013.6
20260507055052 17 0 0.0 1.6 0.00 3.53 0.05 96 1013.5
20260507054605 17 0 0.0 0.0 0.00 3.53 0.05 96 1013.4
20260507054053 17 0 0.0 0.0 0.00 3.53 0.05 96 1013.1
20260507053553 17 0 0.0 0.0 0.03 3.53 0.05 96 1012.9
20260507053108 17 0 0.0 0.0 0.03 3.53 0.05 96 1012.8
20260507052553 17 0 0.0 0.0 0.03 3.53 0.05 96 1012.9
20260507052053 17 0 0.0 0.0 0.03 3.53 0.05 96 1012.6
20260507051605 17 0 0.0 0.0 0.05 3.53 0.05 96 1012.6
20260507051052 17 0 0.0 0.0 0.05 3.53 0.05 95 1012.5
20260507050552 17 0 0.0 0.0 0.05 3.53 0.05 95 1012.4
20260507050056 17 0 0.0 1.6 0.05 3.53 0.05 96 1012.5
20260507045553 17 0 0.0 1.6 0.05 3.53 0.05 96 1012.7
20260507045053 17 0 0.0 0.0 0.05 3.53 0.05 96 1012.8
20260507044557 17 0 0.0 0.0 0.08 3.53 0.05 96 1013.3
20260507044056 17 0 0.0 1.6 0.08 3.53 0.05 96 1013.3
20260507043552 17 0 0.0 1.6 0.08 3.51 0.03 96 1013.5
20260507043057 17 0 0.0 1.6 0.10 3.51 0.03 96 1013.7
20260507042553 17 0 0.0 0.0 0.10 3.51 0.03 96 1013.6
20260507042057 17 0 0.0 0.0 0.10 3.51 0.03 96 1013.7
20260507041559 17 0 0.0 0.0 0.08 3.48 0.00 96 1013.7
20260507041058 17 0 0.0 0.0 0.08 3.48 0.00 96 1013.8
20260507040558 17 0 0.0 0.0 0.08 3.48 0.00 96 1013.3
20260507040059 17 0 0.0 0.0 0.08 3.48 0.00 96 1013.2
20260507035557 17 0 0.0 0.0 0.10 3.48 3.48 96 1013.2
20260507035058 17 0 0.0 0.0 0.20 3.48 3.48 96 1013.6
20260507034558 17 0 0.0 1.6 0.20 3.45 3.45 96 1013.6
20260507034058 17 0 0.0 1.6 0.20 3.45 3.45 96 1013.8
20260507033557 17 0 0.0 3.2 0.18 3.43 3.43 96 1014.0
20260507033058 17 0 0.0 4.8 0.15 3.40 3.40 95 1014.0
20260507032558 17 0 0.0 4.8 0.15 3.40 3.40 95 1013.6
20260507032056 17 0 0.0 0.0 0.15 3.40 3.40 95 1013.4
20260507031556 17 0 0.0 0.0 0.15 3.40 3.40 95 1013.7
20260507031057 17 0 0.0 0.0 0.15 3.40 3.40 95 1013.9
20260507030557 17 0 0.0 0.0 0.15 3.40 3.40 95 1013.7
20260507030058 17 0 0.0 0.0 0.15 3.40 3.40 95 1014.0
20260507025557 17 0 0.0 0.0 0.13 3.38 3.38 95 1014.3
20260507025057 17 0 0.0 0.0 0.03 3.28 3.28 95 1014.4
20260507024558 17 0 0.0 0.0 0.00 3.25 3.25 95 1014.2
20260507024058 17 0 0.0 0.0 0.00 3.25 3.25 95 1014.1
20260507023558 17 0 0.0 0.0 0.00 3.25 3.25 95 1013.7
20260507023057 17 0 0.0 0.0 0.00 3.25 3.25 95 1013.5
20260507022559 17 0 0.0 0.0 0.00 3.25 3.25 95 1013.5
20260507022100 17 0 0.0 0.0 0.00 3.25 3.25 95 1013.4
20260507021558 17 0 0.0 0.0 0.00 3.25 3.25 95 1013.6
20260507021057 17 0 0.0 0.0 0.00 3.25 3.25 95 1013.8
20260507020559 17 0 0.0 0.0 0.00 3.25 3.25 95 1013.9
20260507020113 17 0 0.0 3.2 0.00 3.25 3.25 95 1013.9
20260507015557 17 0 0.0 3.2 0.00 3.25 3.25 95 1013.7
20260507015058 17 0 0.0 0.0 0.00 3.25 3.25 95 1013.9
20260507014601 17 0 0.0 0.0 0.00 3.25 3.25 95 1013.8